When you browse on this site, cookies collect data to enhance your experience and personalize the content and advertising you see.
Visit our Privacy Policy to learn more. By continuing to use the site, you agree to this use of cookies and data.
  • In Belgium
  • List of Countries
  • For 7 days
  • Water Temperature
  • Weather Map
  • Weather Widgets
  • user-avatar
    Login

    Hourly Weather Crete

    Today, 26 January, Sunday

    Time Temperature Precipitation Wind Pressure Humidity
    00:00 +5°C° 0 mm 2 mps 716 mmHg 83%
    01:00 +5°C° 0 mm 2 mps 716 mmHg 82%
    02:00 +6°C° 0 mm 2 mps 715 mmHg 81%
    03:00 +5°C° 0 mm 2 mps 715 mmHg 82%
    04:00 +5°C° 0 mm 2 mps 715 mmHg 82%
    05:00 +5°C° 0 mm 2 mps 715 mmHg 82%
    06:00 +6°C° 0 mm 2 mps 715 mmHg 80%
    07:00 +6°C° 0 mm 2 mps 715 mmHg 78%
    08:00 +8°C° 0 mm 1 mps 716 mmHg 79%
    09:00 +9°C° 0 mm 1 mps 716 mmHg 74%
    10:00 +10°C° 0 mm 2 mps 716 mmHg 68%
    11:00 +13°C° 0 mm 2 mps 716 mmHg 63%
    12:00 +13°C° 0 mm 2 mps 716 mmHg 64%
    13:00 +13°C° 0 mm 3 mps 716 mmHg 64%
    14:00 +13°C° 0 mm 3 mps 716 mmHg 67%
    15:00 +12°C° 0 mm 3 mps 715 mmHg 71%
    16:00 +11°C° 0 mm 3 mps 715 mmHg 76%
    17:00 +10°C° 0 mm 3 mps 715 mmHg 81%
    18:00 +10°C° 0 mm 2 mps 715 mmHg 81%
    19:00 +9°C° 0 mm 2 mps 715 mmHg 80%
    20:00 +8°C° 0 mm 2 mps 715 mmHg 80%
    21:00 +8°C° 0 mm 2 mps 714 mmHg 79%
    22:00 +8°C° 0 mm 2 mps 714 mmHg 78%
    23:00 +8°C° 0 mm 3 mps 714 mmHg 77%

    Tomorrow, 27 January, Monday

    Time Temperature Precipitation Wind Pressure Humidity
    00:00 +8°C° 0 mm 3 mps 714 mmHg 77%
    01:00 +8°C° 0 mm 2 mps 713 mmHg 77%
    02:00 +8°C° 0 mm 2 mps 713 mmHg 77%
    03:00 +8°C° 0 mm 2 mps 713 mmHg 76%
    04:00 +8°C° 0 mm 2 mps 712 mmHg 76%
    05:00 +8°C° 0 mm 2 mps 712 mmHg 75%
    06:00 +8°C° 0 mm 3 mps 712 mmHg 77%
    07:00 +8°C° 0 mm 3 mps 712 mmHg 78%
    08:00 +8°C° 0 mm 3 mps 712 mmHg 80%
    09:00 +9°C° 0 mm 3 mps 712 mmHg 76%
    10:00 +10°C° 0 mm 3 mps 713 mmHg 72%
    11:00 +12°C° 0 mm 4 mps 713 mmHg 68%
    12:00 +12°C° 0 mm 4 mps 712 mmHg 66%
    13:00 +12°C° 0 mm 4 mps 712 mmHg 64%
    14:00 +13°C° 0 mm 4 mps 711 mmHg 62%
    15:00 +12°C° 0 mm 4 mps 711 mmHg 66%
    16:00 +11°C° 0 mm 3 mps 711 mmHg 69%
    17:00 +10°C° 0 mm 2 mps 710 mmHg 72%
    18:00 +10°C° 0 mm 2 mps 710 mmHg 72%
    19:00 +9°C° 0 mm 2 mps 710 mmHg 72%
    20:00 +8°C° 0 mm 2 mps 710 mmHg 72%
    21:00 +8°C° 0 mm 2 mps 710 mmHg 73%
    22:00 +8°C° 0 mm 2 mps 710 mmHg 73%
    23:00 +7°C° 0 mm 2 mps 710 mmHg 74%

    Day after tomorrow, 28 January, Tuesday

    Time Temperature Precipitation Wind Pressure Humidity
    00:00 +7°C° 0 mm 2 mps 709 mmHg 75%
    01:00 +7°C° 0 mm 2 mps 709 mmHg 76%
    02:00 +6°C° 0 mm 2 mps 709 mmHg 77%
    03:00 +5°C° 0 mm 3 mps 709 mmHg 80%
    04:00 +5°C° 0 mm 3 mps 708 mmHg 82%
    05:00 +5°C° 0 mm 3 mps 708 mmHg 85%
    06:00 +5°C° 0 mm 3 mps 708 mmHg 84%
    07:00 +7°C° 0 mm 3 mps 709 mmHg 84%
    08:00 +7°C° 0 mm 3 mps 709 mmHg 83%
    09:00 +8°C° 0 mm 3 mps 709 mmHg 76%
    10:00 +10°C° 0 mm 4 mps 710 mmHg 70%
    11:00 +12°C° 0 mm 4 mps 710 mmHg 63%
    12:00 +12°C° 0 mm 5 mps 710 mmHg 62%
    13:00 +12°C° 0 mm 5 mps 710 mmHg 60%
    14:00 +13°C° 0 mm 5 mps 709 mmHg 59%
    15:00 +12°C° 0 mm 5 mps 709 mmHg 63%
    16:00 +10°C° 0 mm 5 mps 709 mmHg 66%
    17:00 +10°C° 0 mm 5 mps 709 mmHg 70%
    18:00 +10°C° 0 mm 4 mps 709 mmHg 72%
    19:00 +7°C° 0 mm 4 mps 709 mmHg 73%
    20:00 +7°C° 0 mm 3 mps 709 mmHg 75%
    21:00 +7°C° 0 mm 3 mps 710 mmHg 70%
    22:00 +7°C° 0 mm 3 mps 710 mmHg 66%
    23:00 +7°C° 0 mm 3 mps 710 mmHg 62%

    29 January, Wednesday

    Time Temperature Precipitation Wind Pressure Humidity
    00:00 +7°C° 0 mm 3 mps 710 mmHg 64%
    01:00 +7°C° 0 mm 3 mps 709 mmHg 65%
    02:00 +5°C° 0 mm 3 mps 709 mmHg 66%
    03:00 +5°C° 0 mm 3 mps 709 mmHg 69%
    04:00 +5°C° 0 mm 3 mps 709 mmHg 71%
    05:00 +5°C° 0 mm 3 mps 709 mmHg 73%
    06:00 +5°C° 0 mm 4 mps 709 mmHg 76%
    07:00 +6°C° 0 mm 4 mps 709 mmHg 79%
    08:00 +6°C° 0 mm 4 mps 709 mmHg 83%
    09:00 +7°C° 0 mm 5 mps 710 mmHg 79%
    10:00 +9°C° 0 mm 5 mps 710 mmHg 75%
    11:00 +10°C° 0 mm 5 mps 710 mmHg 72%
    12:00 +12°C° 0 mm 5 mps 710 mmHg 71%
    13:00 +12°C° 0 mm 5 mps 710 mmHg 70%
    14:00 +12°C° 0 mm 5 mps 710 mmHg 69%
    15:00 +12°C° 0 mm 5 mps 709 mmHg 72%
    16:00 +10°C° 0 mm 5 mps 709 mmHg 76%
    17:00 +10°C° 0 mm 5 mps 709 mmHg 80%
    18:00 +9°C° 0 mm 5 mps 709 mmHg 83%
    19:00 +8°C° 0 mm 5 mps 710 mmHg 85%
    20:00 +8°C° 0 mm 5 mps 710 mmHg 88%
    21:00 +8°C° 0 mm 4 mps 710 mmHg 89%
    22:00 +7°C° 0 mm 4 mps 710 mmHg 89%
    23:00 +7°C° 0 mm 4 mps 710 mmHg 90%

    30 January, Thursday

    Time Temperature Precipitation Wind Pressure Humidity
    00:00 +7°C° 0 mm 4 mps 709 mmHg 90%
    01:00 +7°C° 0 mm 5 mps 709 mmHg 90%
    02:00 +7°C° 0 mm 5 mps 709 mmHg 90%
    03:00 +7°C° 0 mm 5 mps 708 mmHg 90%
    04:00 +7°C° 0 mm 5 mps 708 mmHg 90%
    05:00 +7°C° 0 mm 5 mps 708 mmHg 90%
    06:00 +7°C° 0 mm 5 mps 708 mmHg 90%
    07:00 +8°C° 0 mm 5 mps 708 mmHg 91%
    08:00 +8°C° 0 mm 5 mps 708 mmHg 91%
    09:00 +9°C° 0 mm 5 mps 708 mmHg 86%
    10:00 +10°C° 0 mm 5 mps 709 mmHg 80%
    11:00 +13°C° 0 mm 6 mps 709 mmHg 75%
    12:00 +13°C° 0.1 mm 6 mps 708 mmHg 75%
    13:00 +13°C° 0.1 mm 6 mps 708 mmHg 74%
    14:00 +13°C° 0.1 mm 6 mps 707 mmHg 74%
    15:00 +11°C° 0.2 mm 7 mps 707 mmHg 77%
    16:00 +11°C° 0.2 mm 7 mps 706 mmHg 80%
    17:00 +10°C° 0.2 mm 7 mps 706 mmHg 83%
    18:00 +9°C° 0 mm 7 mps 706 mmHg 81%
    19:00 +7°C° 0 mm 8 mps 706 mmHg 79%
    20:00 +6°C° 0 mm 8 mps 706 mmHg 78%
    21:00 +5°C° 0.1 mm 9 mps 707 mmHg 78%
    22:00 +5°C° 0.1 mm 9 mps 707 mmHg 79%
    23:00 +3°C° 0.1 mm 10 mps 708 mmHg 79%

    31 January, Friday

    Time Temperature Precipitation Wind Pressure Humidity
    00:00 +3°C° 0.1 mm 10 mps 708 mmHg 79%
    01:00 +2°C° 0.1 mm 10 mps 708 mmHg 79%
    02:00 +2°C° 0.1 mm 9 mps 709 mmHg 80%
    03:00 +2°C° 0.1 mm 9 mps 709 mmHg 80%
    04:00 +2°C° 0.1 mm 8 mps 709 mmHg 80%
    05:00 +3°C° 0.1 mm 7 mps 709 mmHg 81%
    06:00 +3°C° 0 mm 6 mps 710 mmHg 80%
    07:00 +2°C° 0 mm 6 mps 710 mmHg 80%
    08:00 +2°C° 0 mm 6 mps 710 mmHg 80%
    09:00 +3°C° 0 mm 5 mps 711 mmHg 72%
    10:00 +5°C° 0 mm 5 mps 711 mmHg 64%
    11:00 +6°C° 0 mm 5 mps 712 mmHg 56%
    12:00 +7°C° 0 mm 5 mps 712 mmHg 54%
    13:00 +7°C° 0 mm 4 mps 711 mmHg 51%
    14:00 +8°C° 0 mm 4 mps 711 mmHg 49%
    15:00 +7°C° 0 mm 4 mps 711 mmHg 51%
    16:00 +8°C° 0 mm 3 mps 711 mmHg 53%
    17:00 +7°C° 0 mm 2 mps 711 mmHg 56%
    18:00 +6°C° 0 mm 2 mps 711 mmHg 55%
    19:00 +6°C° 0 mm 1 mps 711 mmHg 55%
    20:00 +5°C° 0 mm 1 mps 711 mmHg 55%
    21:00 +5°C° 0 mm 1 mps 711 mmHg 52%
    22:00 +5°C° 0 mm 1 mps 711 mmHg 49%
    23:00 +5°C° 0 mm 1 mps 710 mmHg 47%
    Show more